Date String (YYYY-MM-DD hh:mm:ss) UTC,Instrument flags,Ambient pressure (hPa),Sample flow (lpm),Bypass flow (lpm),Sample temperature (°C),Ambient temperature (°C),ASC tube jacket temperature (°C),LED temperature (°C),Box temperature (°C),Sample RH (%),Span deviation,Mass concentration (μg/m³),Mass concentration (μg/m³),Mass concentration (μg/m³)
DateTimeUTC,F1_M11,P_M11,Q1_M11,Q2_M11,T1_M11,T2_M11,T3_M11,T4_M11,T5_M11,U1_M11,ZSPAN_M11,X0_M11,X2_M11,X1_M11
2021-10-13 03:00:00,,0814.0,5.00,0.00,27.3,26.4,00.0,36.4,29.1,17.0,0000.0,0009.04,0001.97,0000.70
2021-10-13 03:01:00,,0814.1,5.00,0.00,27.4,26.4,00.0,36.5,29.1,17.0,0000.0,0008.91,0001.93,0000.69
2021-10-13 03:02:00,,0814.0,4.99,0.00,27.4,26.5,00.0,36.5,29.1,17.0,0000.0,0008.45,0001.88,0000.68
2021-10-13 03:03:00,,0814.0,5.00,0.00,27.4,26.5,00.0,36.5,29.2,16.9,0000.0,0007.33,0001.79,0000.66
2021-10-13 03:04:00,,0814.0,5.02,0.00,27.3,26.5,00.0,36.5,29.1,16.8,0000.0,0007.63,0001.69,0000.64
2021-10-13 03:05:00,,0814.1,5.01,0.00,27.3,26.4,00.0,36.5,29.1,16.9,0000.0,0007.89,0001.57,0000.63
2021-10-13 03:06:00,,0814.1,5.00,0.00,27.4,26.4,00.0,36.5,29.2,16.9,0000.0,0008.38,0001.63,0000.62
2021-10-13 03:07:00,,0814.1,5.00,0.00,27.4,26.4,00.0,36.5,29.2,16.7,0000.0,0008.09,0001.66,0000.61
2021-10-13 03:08:00,,0814.2,5.00,0.00,27.4,26.4,00.0,36.5,29.2,16.8,0000.0,0008.06,0001.66,0000.60
2021-10-13 03:09:00,,0814.3,5.01,0.00,27.4,26.4,00.0,36.5,29.2,16.7,0000.0,0008.42,0001.74,0000.61
2021-10-13 03:10:00,,0814.4,5.00,0.00,27.3,26.4,00.0,36.5,29.1,16.6,0000.0,0008.84,0001.76,0000.61
2021-10-13 03:11:00,,0814.5,5.00,0.00,27.3,26.3,00.0,36.4,29.0,16.8,0000.0,0008.58,0001.79,0000.62
2021-10-13 03:12:00,,0814.3,5.00,0.00,27.3,26.4,00.0,36.4,29.0,16.9,0000.0,0008.53,0001.78,0000.63
2021-10-13 03:13:00,,0814.4,4.99,0.00,27.3,26.4,00.0,36.4,29.1,16.9,0000.0,0008.56,0001.80,0000.66
2021-10-13 03:14:00,,0814.4,5.00,0.00,27.3,26.4,00.0,36.4,29.1,16.7,0000.0,0008.31,0001.84,0000.67
2021-10-13 03:15:00,,0814.4,4.99,0.00,27.3,26.4,00.0,36.4,29.1,16.6,0000.0,0007.97,0001.95,0000.69
2021-10-13 03:16:00,,0814.4,4.99,0.00,27.3,26.4,00.0,36.4,29.1,16.7,0000.0,0007.73,0002.06,0000.71
2021-10-13 03:17:00,,0814.4,5.00,0.00,27.3,26.4,00.0,36.4,29.1,16.6,0000.0,0007.10,0002.10,0000.73
2021-10-13 03:18:00,,0814.5,5.00,0.00,27.3,26.4,00.0,36.4,29.1,16.6,0000.0,0007.30,0002.12,0000.74
2021-10-13 03:19:00,,0814.4,5.00,0.00,27.3,26.4,00.0,36.4,29.1,16.7,0000.0,0007.24,0002.14,0000.75
2021-10-13 03:20:00,,0814.4,5.01,0.00,27.4,26.4,00.0,36.4,29.1,16.8,0000.0,0006.41,0002.10,0000.76
2021-10-13 03:21:00,,0814.5,5.00,0.00,27.4,26.4,00.0,36.5,29.1,16.7,0000.0,0005.42,0002.15,0000.77
2021-10-13 03:22:00,,0814.4,5.01,0.00,27.3,26.4,00.0,36.5,29.1,16.6,0000.0,0005.92,0002.13,0000.78
2021-10-13 03:23:00,,0814.4,4.99,0.00,27.4,26.4,00.0,36.5,29.2,16.6,0000.0,0006.20,0002.15,0000.78
2021-10-13 03:24:00,,0814.4,4.99,0.00,27.4,26.4,00.0,36.5,29.1,16.7,0000.0,0006.36,0002.17,0000.77
2021-10-13 03:25:00,,0814.5,5.01,0.00,27.4,26.4,00.0,36.5,29.1,16.7,0000.0,0007.38,0002.14,0000.78
2021-10-13 03:26:00,,0814.7,5.01,0.00,27.4,26.4,00.0,36.5,29.1,16.7,0000.0,0007.22,0002.05,0000.76
2021-10-13 03:27:00,,0814.6,5.00,0.00,27.4,26.4,00.0,36.5,29.1,16.7,0000.0,0007.29,0002.00,0000.76
2021-10-13 03:28:00,,0814.6,5.00,0.00,27.4,26.4,00.0,36.5,29.2,16.8,0000.0,0007.20,0001.98,0000.76
2021-10-13 03:29:00,,0814.4,5.01,0.00,27.4,26.4,00.0,36.5,29.1,16.8,0000.0,0006.88,0001.94,0000.76
2021-10-13 03:30:00,,0814.3,5.00,0.00,27.4,26.4,00.0,36.5,29.1,16.8,0000.0,0007.19,0002.00,0000.77
2021-10-13 03:31:00,,0814.3,5.00,0.00,27.4,26.4,00.0,36.5,29.2,16.8,0000.0,0007.25,0001.98,0000.77
2021-10-13 03:32:00,,0814.3,4.99,0.00,27.4,26.4,00.0,36.5,29.2,16.8,0000.0,0007.26,0001.95,0000.77
2021-10-13 03:33:00,,0814.5,5.00,0.00,27.4,26.5,00.0,36.5,29.2,16.8,0000.0,0007.14,0002.00,0000.77
2021-10-13 03:34:00,,0814.4,5.01,0.00,27.4,26.5,00.0,36.5,29.2,16.8,0000.0,0006.60,0001.97,0000.77
2021-10-13 03:35:00,,0814.5,5.00,0.00,27.4,26.5,00.0,36.5,29.2,16.9,0000.0,0006.62,0001.97,0000.76
2021-10-13 03:36:00,,0814.5,4.99,0.00,27.4,26.5,00.0,36.5,29.2,16.9,0000.0,0005.52,0001.98,0000.77
2021-10-13 03:37:00,,0814.8,5.00,0.00,27.4,26.5,00.0,36.5,29.2,16.9,0000.0,0005.40,0001.94,0000.76
2021-10-13 03:38:00,,0815.0,5.01,0.00,27.4,26.5,00.0,36.5,29.2,16.9,0000.0,0006.05,0001.97,0000.75
2021-10-13 03:39:00,,0814.9,5.02,0.00,27.4,26.5,00.0,36.5,29.2,16.9,0000.0,0006.26,0002.00,0000.74
2021-10-13 03:40:00,,0815.1,5.00,0.00,27.4,26.5,00.0,36.5,29.2,16.9,0000.0,0006.15,0002.01,0000.73
2021-10-13 03:41:00,,0814.9,5.00,0.00,27.4,26.5,00.0,36.5,29.2,16.9,0000.0,0006.20,0001.96,0000.72
2021-10-13 03:42:00,,0814.8,4.99,0.00,27.4,26.5,00.0,36.5,29.2,17.0,0000.0,0006.19,0001.96,0000.70
2021-10-13 03:43:00,,0814.9,5.00,0.00,27.4,26.5,00.0,36.5,29.2,17.0,0000.0,0006.08,0001.95,0000.70
2021-10-13 03:44:00,,0815.2,4.99,0.00,27.4,26.5,00.0,36.5,29.2,17.0,0000.0,0005.74,0001.89,0000.70
2021-10-13 03:45:00,,0814.7,5.00,0.00,27.4,26.5,00.0,36.5,29.2,17.0,0000.0,0005.79,0001.89,0000.69
2021-10-13 03:46:00,,0815.1,5.00,0.00,27.4,26.5,00.0,36.5,29.2,17.0,0000.0,0005.76,0001.86,0000.69
2021-10-13 03:47:00,,0815.0,5.00,0.00,27.4,26.5,00.0,36.5,29.2,17.0,0000.0,0005.76,0001.87,0000.68
2021-10-13 03:48:00,,0814.9,5.01,0.00,27.4,26.5,00.0,36.5,29.2,17.0,0000.0,0005.83,0001.89,0000.67
2021-10-13 03:49:00,,0815.1,5.00,0.00,27.4,26.5,00.0,36.5,29.2,17.0,0000.0,0005.04,0001.79,0000.67
2021-10-13 03:50:00,,0815.1,5.00,0.00,27.4,26.5,00.0,36.5,29.2,17.1,0000.0,0004.55,0001.70,0000.66
2021-10-13 03:51:00,,0815.2,5.00,0.00,27.4,26.5,00.0,36.5,29.2,17.1,0000.0,0004.32,0001.63,0000.66
2021-10-13 03:52:00,,0815.0,5.00,0.00,27.4,26.5,00.0,36.5,29.2,17.0,0000.0,0003.83,0001.59,0000.66
2021-10-13 03:53:00,,0814.7,5.00,0.00,27.4,26.5,00.0,36.5,29.2,17.0,0000.0,0003.62,0001.51,0000.65
2021-10-13 03:54:00,,0814.8,4.99,0.00,27.4,26.5,00.0,36.5,29.2,17.0,0000.0,0003.78,0001.51,0000.63
2021-10-13 03:55:00,,0814.7,5.00,0.00,27.4,26.5,00.0,36.5,29.2,17.0,0000.0,0004.74,0001.53,0000.63
2021-10-13 03:56:00,,0815.0,5.00,0.00,27.4,26.5,00.0,36.5,29.2,17.0,0000.0,0004.99,0001.58,0000.61
2021-10-13 03:57:00,,0815.2,5.00,0.00,27.4,26.5,00.0,36.5,29.2,17.0,0000.0,0005.65,0001.62,0000.61
2021-10-13 03:58:00,,0815.1,5.01,0.00,27.4,26.5,00.0,36.5,29.2,17.0,0000.0,0005.74,0001.62,0000.60
2021-10-13 03:59:00,,0815.0,4.99,0.00,27.4,26.5,00.0,36.5,29.2,17.0,0000.0,0005.65,0001.59,0000.61
